Location: Foxton
(40.4667°S, 175.3000°E)
Time: 08:26:42
(UTC+00:00)

Daily predictions for brighter satellites

Satellite Brightness Start Highest point End
(mag) Time Altitude Azimuth Time Altitude Azimuth Time Altitude Azimuth
Cosmos 1943 Rocket 4.0 14:09:06 25° S 14:09:06 25° S 14:11:42 10° S
ATLAS 2AS CENTAUR R/B 2.9 14:29:50 61° ESE 14:29:50 61° ESE 14:35:21 10° SE
Cosmos 2369 Rocket 3.2 14:31:04 41° SSE 14:31:04 41° SSE 14:34:44 10° SSE
ARIANE 5 R/B 3.9 14:39:34 32° E 14:40:44 36° ESE 14:45:26 10° S
SeaSat 1 4.0 14:44:46 10° SSE 14:47:33 29° S 14:47:33 29° S
CZ-2C R/B 3.8 14:52:14 29° S 14:52:14 29° S 14:54:33 10° S
SL-4 R/B 4.3 14:57:28 19° S 14:57:28 19° S 14:59:23 10° SE
ATLAS 3B R/B 3.9 14:53:28 10° SSW 14:59:34 37° SE 15:05:25 10° ENE
Cosmos 1000 Rocket 4.3 15:07:39 81° NNW 15:07:59 88° W 15:14:18 10° S
Meteor 1-19 Rocket 4.2 15:03:13 10° S 15:09:06 79° E 15:09:50 67° NE
Lacrosse 5 2.7 15:10:49 19° SSW 15:14:20 51° SE 15:19:20 10° ENE
CZ-4C R/B 3.7 15:11:40 10° SSW 15:16:32 30° SE 15:20:38 10° ENE
Cosmos 1802 Rocket 4.1 15:11:22 10° S 15:17:53 76° E 15:22:24 21° NNE
Cosmos 614 Rocket 4.3 15:18:46 54° NE 15:19:33 61° ENE 15:24:46 10° SSE
SL-16 R/B 2.6 15:15:10 10° SSE 15:21:26 77° ENE 15:23:27 45° N
Cosmos 2173 Rocket 3.9 15:17:53 10° S 15:24:16 75° W 15:25:38 56° NNW
Cosmos 2123 Rocket 4.0 15:24:01 42° N 15:26:24 83° E 15:32:49 10° S
YAOGAN 6 3.7 15:28:19 40° E 15:28:29 40° ESE 15:31:50 10° S
IRS-1C 4.0 15:29:01 68° W 15:29:01 68° W 15:34:19 10° SSW
Cosmos 1833 4.1 15:30:26 10° SSW 15:35:59 61° WNW 15:36:01 61° WNW
ALOS 4.4 15:40:05 15° SW 15:40:05 15° SW 15:41:01 10° SSW
Hubble Space Telescope 3.2 15:39:41 12° NNE 15:39:41 12° NNE 15:40:21 10° NE
Cosmos 1484 Rocket 2.8 15:41:51 69° S 15:41:51 69° S 15:45:15 10° S
SL-27 R/B 3.5 15:46:53 10° S 15:50:14 45° ESE 15:53:35 10° NE
Helios 1B rocket 4.5 15:53:35 16° SW 15:53:35 16° SW 15:54:36 10° SSW
Meteor 1-28 Rocket 4.0 15:53:30 10° S 15:56:25 38° SW 15:56:25 38° SW
Helios 1A 3.6 15:54:35 10° SSE 15:58:46 55° E 16:02:02 16° N
Meteor 1-18 Rocket 4.3 15:54:41 10° SSW 16:00:38 65° W 16:06:26 10° N
NOAA 11 4.5 16:00:46 10° NNE 16:06:11 69° ESE 16:11:39 10° S
H-2A R/B 2.9 16:03:57 10° NNE 16:07:45 75° ESE 16:11:37 10° S
Cosmos 2016 Rocket 4.1 16:01:48 10° SSW 16:07:53 53° W 16:14:00 10° NNW
UNK 4.4 16:04:18 10° S 16:08:32 36° WSW 16:09:09 34° W
ISS -0.9 16:06:53 10° SSW 16:08:52 14° S 16:10:51 10° SE
SL-08 R/B 4.5 16:05:04 10° SSW 16:11:11 58° W 16:17:10 10° N
CZ-2C R/B 2.1 16:11:00 32° NNW 16:11:19 33° N 16:15:04 10° NE
Spot 4 Rocket 4.0 16:08:06 10° N 16:13:13 65° WNW 16:18:26 10° SSW
Cosmos 1805 Rocket 4.0 16:13:12 36° W 16:13:53 39° WSW 16:18:03 10° S
Cosmos 2369 Rocket 4.1 16:12:51 12° WSW 16:14:01 13° SW 16:16:36 10° SSW
GP-B 4.0 16:11:08 10° SSE 16:15:34 51° E 16:19:55 10° NNE
Cosmos 1633 Rocket 3.4 16:12:18 10° N 16:16:40 67° E 16:21:08 10° SSE
ARIANE 5 R/B 3.4 16:19:53 26° W 16:19:53 26° W 16:24:11 10° SW
Meteor 2-4 Rocket 4.0 16:14:14 10° SSW 16:20:02 52° W 16:25:46 10° NNW
ATLAS 2AS CENTAUR R/B 3.9 16:17:16 18° WSW 16:20:19 25° SW 16:25:45 10° SSE
Cosmos 1992 Rocket 4.3 16:15:59 10° SSW 16:20:56 42° WNW 16:25:49 10° N
Cosmos 1140 Rocket 3.7 16:19:18 10° NNW 16:24:32 76° ENE 16:29:50 10° SSE
Cosmos 1862 Rocket 4.2 16:20:42 10° S 16:25:12 61° E 16:29:39 10° NNE
PSLV R/B 3.4 16:23:46 10° N 16:27:58 70° W 16:32:12 10° SSW
Cosmos 2061 Rocket 4.4 16:24:41 10° SSW 16:30:38 42° W 16:36:28 10° NNW
CZ-2C R/B 3.0 16:26:03 10° N 16:30:51 50° W 16:35:35 10° SSW
CZ-2C R/B 2.8 16:26:53 10° N 16:30:54 70° W 16:34:57 10° SSW
Sich 1 4.0 16:33:04 24° WNW 16:34:29 28° WSW 16:38:20 10° SSW
Cosmos 1666 Rocket 3.6 16:30:09 10° NNW 16:34:32 62° W 16:38:59 10° S
Envisat 3.6 16:30:41 10° NNW 16:35:20 35° W 16:40:02 10° SSW
SL-4 R/B 4.3 16:34:13 10° SW 16:36:46 16° S 16:39:13 10° SE
Cosmos 1697 Rocket 4.2 16:31:39 10° N 16:36:48 37° ENE 16:41:59 10° SE
NOSS 2-3 (E) 4.4 16:30:39 10° SW 16:38:00 86° NW 16:43:21 10° NNE
Cosmos 1656 3.7 16:32:47 10° NNW 16:38:20 86° ENE 16:43:53 10° SSE
Cosmos 2228 Rocket 3.8 16:34:08 10° SSW 16:38:22 35° W 16:42:32 10° NNW
H-2A R/B 3.9 16:41:06 10° NE 16:45:46 35° ESE 16:50:22 10° S
Cosmos 2233 Rocket 4.4 16:42:59 10° SSW 16:48:52 42° W 16:54:44 10° NNW
ATLAS 3B R/B 2.8 16:44:11 10° SW 16:50:16 43° WNW 16:56:12 10° N
Cosmos 1536 2.9 16:50:35 10° NNW 16:54:32 58° W 16:58:33 10° S
BREEZE-M DEB (TANK) 4.4 16:53:57 10° SW 16:55:17 13° SSW 16:56:24 10° SSE
Cosmos 1707 Rocket 4.1 16:52:45 10° SSW 16:56:55 37° W 17:01:01 10° NNW
Lacrosse 5 2.8 16:52:43 10° WSW 16:57:04 28° WNW 17:01:22 10° N
Cosmos 405 Rocket 2.6 16:56:40 10° SSW 17:00:26 70° W 17:04:11 10° N
Meteor 1-13 Rocket 4.3 16:54:51 10° SSW 17:00:47 68° W 17:06:32 10° N
NOSS 3-1 (A) 4.3 16:56:03 10° SSW 17:02:15 50° SE 17:07:25 10° NE
SL-16 R/B 4.0 17:00:16 10° SSW 17:04:17 18° WSW 17:08:18 10° W
CZ-4C R/B 2.3 17:00:22 10° SW 17:04:57 34° WNW 17:08:55 10° N
Cosmos 1464 Rocket 4.1 16:58:54 10° S 17:05:24 88° E 17:11:44 10° N
Cosmos 1470 Rocket 3.7 17:01:49 10° NNW 17:06:14 58° W 17:10:46 10° S
Cosmos 2251 Rocket 4.3 17:01:46 10° NW 17:06:32 33° WSW 17:11:23 10° S
Cosmos 2227 Rocket 2.9 17:05:32 10° SSW 17:11:14 62° ESE 17:16:51 10° NE
USA 215 4.0 17:06:12 10° SE 17:12:40 54° NE 17:19:04 10° NNW
Meteor 1-23 Rocket 4.4 17:07:59 10° S 17:13:44 89° E 17:19:30 10° N
Cosmos 1954 Rocket 4.3 17:09:00 10° NNW 17:14:20 80° ENE 17:19:43 10° SSE
FengYun 1-2 T 4.4 17:08:46 10° NNE 17:14:27 86° ESE 17:20:10 10° SSW
Cosmos 1190 Rocket 4.1 17:11:47 10° NNW 17:17:03 65° WSW 17:22:25 10° SSE
Hubble Space Telescope 3.0 17:16:24 10° NW 17:18:14 13° N 17:20:03 10° NNE
CZ-4B R/B 4.1 17:14:20 10° NNW 17:18:59 34° W 17:23:35 10° SSW
Cosmos 1980 Rocket 3.7 17:13:56 10° N 17:19:10 40° ENE 17:24:30 10° SE
Cosmos 407 Rocket 4.1 17:16:28 10° NW 17:21:25 38° WSW 17:26:22 10° S
CZ-2C R/B 2.8 17:16:33 10° SSE 17:21:51 82° ENE 17:27:03 10° N
